,,,PA_Meas_PMT16A,,PR_Meas_QMR101_102,,RH_Meas_QMH101,,SR_Meas_QMS101,,TA_Meas_QMH101,,GenWind,,GenWind,
date,time,status,PA,status,PR,status,RH,status,SR,status,TA,status,DirAvg,status,SpdAvg,
2010-04-29, 00:00:04,VALID,1012.06,VALID,0,VALID,102.185,VALID,0,VALID,24.3547,VALID,356,VALID,0,
2010-04-29, 00:01:04,VALID,1012.1,VALID,0,VALID,102.185,VALID,0,VALID,24.3547,VALID,356,VALID,0,
2010-04-29, 00:02:04,VALID,1012.07,VALID,0,VALID,102.2,VALID,0.105969,VALID,24.3352,VALID,356,VALID,0,
2010-04-29, 00:03:04,VALID,1012.07,VALID,0,VALID,102.17,VALID,0,VALID,24.3566,VALID,356,VALID,0,
2010-04-29, 00:04:04,VALID,1012.06,VALID,0,VALID,102.177,VALID,0,VALID,24.3566,VALID,356,VALID,0,
2010-04-29, 00:05:04,VALID,1012.06,VALID,0,VALID,102.2,VALID,0,VALID,24.3371,VALID,356,VALID,0,
2010-04-29, 00:06:04,VALID,1012.08,VALID,0,VALID,102.223,VALID,0,VALID,24.2963,VALID,356,VALID,0,
2010-04-29, 00:07:04,VALID,1012.09,VALID,0,VALID,102.223,VALID,0,VALID,24.3158,VALID,356,VALID,0,
2010-04-29, 00:08:04,VALID,1012.08,VALID,0,VALID,102.208,VALID,0,VALID,24.3371,VALID,356,VALID,0,
2010-04-29, 00:09:04,VALID,1012.08,VALID,0,VALID,102.208,VALID,0,VALID,24.3176,VALID,356,VALID,0,
2010-04-29, 00:10:04,VALID,1012.05,VALID,0,VALID,102.208,VALID,0,VALID,24.2768,VALID,356,VALID,0,
2010-04-29, 00:11:04,VALID,1012.03,VALID,0,VALID,102.231,VALID,0,VALID,24.2786,VALID,356,VALID,0,
2010-04-29, 00:12:04,VALID,1012.03,VALID,0,VALID,102.223,VALID,0,VALID,24.2786,VALID,356,VALID,0,
2010-04-29, 00:13:04,VALID,1012.02,VALID,0,VALID,102.231,VALID,0,VALID,24.2573,VALID,356,VALID,0,
2010-04-29, 00:14:04,VALID,1012.02,VALID,0,VALID,102.246,VALID,0,VALID,24.2786,VALID,356,VALID,0,
2010-04-29, 00:15:04,VALID,1012,VALID,0,VALID,102.246,VALID,0,VALID,24.2378,VALID,356,VALID,0,
2010-04-29, 00:16:04,VALID,1012,VALID,0,VALID,102.231,VALID,0.105969,VALID,24.2573,VALID,356,VALID,0,
2010-04-29, 00:17:04,VALID,1011.97,VALID,0,VALID,102.238,VALID,0,VALID,24.2573,VALID,356,VALID,0,
2010-04-29, 00:18:04,VALID,1011.94,VALID,0,VALID,102.238,VALID,0,VALID,24.2786,VALID,356,VALID,0,
2010-04-29, 00:19:04,VALID,1011.93,VALID,0,VALID,102.223,VALID,0,VALID,24.2786,VALID,356,VALID,0,
2010-04-29, 00:20:04,VALID,1011.91,VALID,0,VALID,102.238,VALID,0,VALID,24.2768,VALID,356,VALID,0,
2010-04-29, 00:21:04,VALID,1011.91,VALID,0,VALID,102.261,VALID,0,VALID,24.2573,VALID,356,VALID,0,
2010-04-29, 00:22:04,VALID,1011.89,VALID,0,VALID,102.246,VALID,0,VALID,24.2768,VALID,356,VALID,0,
2010-04-29, 00:23:04,VALID,1011.89,VALID,0,VALID,102.261,VALID,0.105969,VALID,24.2768,VALID,356,VALID,0,
2010-04-29, 00:24:04,VALID,1011.86,VALID,0,VALID,102.261,VALID,0,VALID,24.2981,VALID,356,VALID,0,
2010-04-29, 00:25:04,VALID,1011.84,VALID,0,VALID,102.238,VALID,0,VALID,24.2786,VALID,356,VALID,0,
2010-04-29, 00:26:04,VALID,1011.83,VALID,0,VALID,102.269,VALID,0,VALID,24.2768,VALID,356,VALID,0,
2010-04-29, 00:27:04,VALID,1011.82,VALID,0,VALID,102.254,VALID,0,VALID,24.2573,VALID,356,VALID,0,
2010-04-29, 00:28:04,VALID,1011.77,VALID,0,VALID,102.261,VALID,0,VALID,24.2573,VALID,356,VALID,0,
2010-04-29, 00:29:04,VALID,1011.77,VALID,0,VALID,102.269,VALID,0,VALID,24.2573,VALID,356,VALID,0,
2010-04-29, 00:30:04,VALID,1011.75,VALID,0,VALID,102.261,VALID,0,VALID,24.2573,VALID,356,VALID,0,
2010-04-29, 00:31:04,VALID,1011.73,VALID,0,VALID,102.277,VALID,0,VALID,24.2183,VALID,356,VALID,0,
2010-04-29, 00:32:04,VALID,1011.7,VALID,0,VALID,102.261,VALID,0,VALID,24.2396,VALID,356,VALID,0,
2010-04-29, 00:33:04,VALID,1011.67,VALID,0,VALID,102.269,VALID,0,VALID,24.2396,VALID,356,VALID,0,
2010-04-29, 00:34:04,VALID,1011.7,VALID,0,VALID,102.269,VALID,0,VALID,24.1988,VALID,356,VALID,0,
2010-04-29, 00:35:04,VALID,1011.69,VALID,0,VALID,102.254,VALID,0,VALID,24.1988,VALID,356,VALID,0,
2010-04-29, 00:36:04,VALID,1011.69,VALID,0,VALID,102.292,VALID,0,VALID,24.2007,VALID,356,VALID,0,
2010-04-29, 00:37:04,VALID,1011.66,VALID,0,VALID,102.284,VALID,0,VALID,24.1793,VALID,356,VALID,0,
2010-04-29, 00:38:04,VALID,1011.64,VALID,0,VALID,102.299,VALID,0,VALID,24.1599,VALID,356,VALID,0,
2010-04-29, 00:39:04,VALID,1011.61,VALID,0,VALID,102.292,VALID,0,VALID,24.1617,VALID,356,VALID,0,
2010-04-29, 00:40:04,VALID,1011.61,VALID,0,VALID,102.307,VALID,0,VALID,24.1209,VALID,356,VALID,0,
2010-04-29, 00:41:04,VALID,1011.61,VALID,0,VALID,102.307,VALID,0,VALID,24.1014,VALID,356,VALID,0,
2010-04-29, 00:42:04,VALID,1011.61,VALID,0,VALID,102.284,VALID,0.105969,VALID,24.1014,VALID,356,VALID,0,
2010-04-29, 00:43:04,VALID,1011.6,VALID,0,VALID,102.292,VALID,0,VALID,24.1014,VALID,356,VALID,0,
2010-04-29, 00:44:05,VALID,1011.58,VALID,0,VALID,102.292,VALID,0,VALID,24.1014,VALID,356,VALID,0,
2010-04-29, 00:45:05,VALID,1011.63,VALID,0,VALID,102.292,VALID,0,VALID,24.1227,VALID,356,VALID,0,
2010-04-29, 00:46:05,VALID,1011.61,VALID,0,VALID,102.277,VALID,0,VALID,24.1014,VALID,356,VALID,0,
2010-04-29, 00:47:05,VALID,1011.57,VALID,0,VALID,102.284,VALID,0,VALID,24.1014,VALID,356,VALID,0,
2010-04-29, 00:48:05,VALID,1011.58,VALID,0,VALID,102.269,VALID,0,VALID,24.1227,VALID,356,VALID,0,
2010-04-29, 00:49:05,VALID,1011.53,VALID,0,VALID,102.261,VALID,0,VALID,24.1227,VALID,356,VALID,0,
2010-04-29, 00:50:05,VALID,1011.49,VALID,0,VALID,102.299,VALID,0,VALID,24.1014,VALID,356,VALID,0,
2010-04-29, 00:51:05,VALID,1011.47,VALID,0,VALID,102.277,VALID,0,VALID,24.0819,VALID,356,VALID,0,
2010-04-29, 00:52:05,VALID,1011.46,VALID,0,VALID,102.299,VALID,0.105969,VALID,24.0837,VALID,356,VALID,0,
2010-04-29, 00:53:05,VALID,1011.48,VALID,0,VALID,102.307,VALID,0.105969,VALID,24.0624,VALID,356,VALID,0,
2010-04-29, 00:54:05,VALID,1011.46,VALID,0,VALID,102.307,VALID,0,VALID,24.0448,VALID,356,VALID,0,
2010-04-29, 00:55:05,VALID,1011.46,VALID,0,VALID,102.315,VALID,0,VALID,24.0253,VALID,356,VALID,0,
2010-04-29, 00:56:05,VALID,1011.43,VALID,0,VALID,102.322,VALID,0,VALID,24.004,VALID,356,VALID,0,
2010-04-29, 00:57:05,VALID,1011.47,VALID,0,VALID,102.284,VALID,0,VALID,24.004,VALID,356,VALID,0,
2010-04-29, 00:58:05,VALID,1011.43,VALID,0,VALID,102.277,VALID,0,VALID,24.004,VALID,356,VALID,0,
2010-04-29, 00:59:05,VALID,1011.42,VALID,0,VALID,102.261,VALID,0,VALID,24.0235,VALID,356,VALID,0,
2010-04-29, 01:00:05,VALID,1011.42,VALID,0,VALID,102.277,VALID,0,VALID,24.0235,VALID,356,VALID,0,
2010-04-29, 01:01:05,VALID,1011.41,VALID,0,VALID,102.269,VALID,0,VALID,24.0235,VALID,356,VALID,0,
2010-04-29, 01:02:05,VALID,1011.41,VALID,0,VALID,102.269,VALID,0,VALID,24.0448,VALID,356,VALID,0,
2010-04-29, 01:03:05,VALID,1011.38,VALID,0,VALID,102.277,VALID,0.105969,VALID,24.004,VALID,356,VALID,0,
2010-04-29, 01:04:05,VALID,1011.41,VALID,0,VALID,102.277,VALID,0,VALID,24.0253,VALID,356,VALID,0,
2010-04-29, 01:05:05,VALID,1011.36,VALID,0,VALID,102.292,VALID,0.105969,VALID,23.9845,VALID,356,VALID,0,
2010-04-29, 01:06:05,VALID,1011.35,VALID,0,VALID,102.284,VALID,0,VALID,24.0058,VALID,356,VALID,0,
2010-04-29, 01:07:05,VALID,1011.31,VALID,0,VALID,102.277,VALID,0,VALID,24.0058,VALID,356,VALID,0,
2010-04-29, 01:08:05,VALID,1011.3,VALID,0,VALID,102.269,VALID,0,VALID,23.9845,VALID,356,VALID,0,
2010-04-29, 01:09:05,VALID,1011.26,VALID,0,VALID,102.269,VALID,0,VALID,24.0058,VALID,356,VALID,0,
2010-04-29, 01:10:05,VALID,1011.25,VALID,0,VALID,102.261,VALID,0,VALID,24.004,VALID,356,VALID,0,
2010-04-29, 01:11:05,VALID,1011.2,VALID,0,VALID,102.238,VALID,0,VALID,24.004,VALID,356,VALID,0,
2010-04-29, 01:12:05,VALID,1011.18,VALID,0,VALID,102.223,VALID,0,VALID,24.0429,VALID,356,VALID,0,
2010-04-29, 01:13:05,VALID,1011.16,VALID,0,VALID,102.238,VALID,0,VALID,24.0429,VALID,356,VALID,0,
2010-04-29, 01:14:05,VALID,1011.12,VALID,0,VALID,102.238,VALID,0,VALID,24.0429,VALID,356,VALID,0,
2010-04-29, 01:15:05,VALID,1011.09,VALID,0,VALID,102.231,VALID,0,VALID,24.0429,VALID,356,VALID,0,
2010-04-29, 01:16:05,VALID,1011.07,VALID,0,VALID,102.231,VALID,0.105969,VALID,24.0448,VALID,356,VALID,0,
2010-04-29, 01:17:05,VALID,1011.07,VALID,0,VALID,102.231,VALID,0,VALID,24.0429,VALID,356,VALID,0,
2010-04-29, 01:18:05,VALID,1011.06,VALID,0,VALID,102.193,VALID,0,VALID,24.0837,VALID,356,VALID,0,
2010-04-29, 01:19:05,VALID,1011.03,VALID,0,VALID,102.177,VALID,0.105969,VALID,24.0819,VALID,356,VALID,0,
2010-04-29, 01:20:05,VALID,1011.01,VALID,0,VALID,102.155,VALID,0.105969,VALID,24.1014,VALID,356,VALID,0,
2010-04-29, 01:21:05,VALID,1010.98,VALID,0,VALID,102.147,VALID,0,VALID,24.1209,VALID,356,VALID,0,
2010-04-29, 01:22:05,VALID,1010.97,VALID,0,VALID,102.177,VALID,0.105969,VALID,24.1404,VALID,356,VALID,0,
2010-04-29, 01:23:05,VALID,1010.92,VALID,0,VALID,102.17,VALID,0.105969,VALID,24.1404,VALID,356,VALID,0,
2010-04-29, 01:24:05,VALID,1010.89,VALID,0,VALID,102.17,VALID,0.105969,VALID,24.1599,VALID,356,VALID,0,
2010-04-29, 01:25:05,VALID,1010.87,VALID,0,VALID,102.155,VALID,0.105969,VALID,24.1404,VALID,356,VALID,0,
2010-04-29, 01:26:05,VALID,1010.86,VALID,0,VALID,102.162,VALID,0.105969,VALID,24.1599,VALID,356,VALID,0,
2010-04-29, 01:27:05,VALID,1010.87,VALID,0,VALID,102.139,VALID,0.105969,VALID,24.1793,VALID,356,VALID,0,
2010-04-29, 01:28:05,VALID,1010.86,VALID,0,VALID,102.177,VALID,0,VALID,24.1812,VALID,356,VALID,0,
2010-04-29, 01:29:05,VALID,1010.82,VALID,0,VALID,102.193,VALID,0,VALID,24.1404,VALID,356,VALID,0,
2010-04-29, 01:30:05,VALID,1010.83,VALID,0,VALID,102.238,VALID,0.105969,VALID,24.1209,VALID,356,VALID,0,
2010-04-29, 01:31:05,VALID,1010.85,VALID,0,VALID,102.246,VALID,0.105969,VALID,24.1014,VALID,356,VALID,0,
2010-04-29, 01:32:05,VALID,1010.83,VALID,0,VALID,102.261,VALID,0.105969,VALID,24.1014,VALID,356,VALID,0,
2010-04-29, 01:33:05,VALID,1010.82,VALID,0,VALID,102.254,VALID,0.105969,VALID,24.0819,VALID,356,VALID,0,
2010-04-29, 01:34:05,VALID,1010.8,VALID,0,VALID,102.269,VALID,0.105969,VALID,24.0624,VALID,356,VALID,0,
2010-04-29, 01:35:05,VALID,1010.81,VALID,0,VALID,102.284,VALID,0.105969,VALID,24.0624,VALID,356,VALID,0,
2010-04-29, 01:36:05,VALID,1010.8,VALID,0,VALID,102.315,VALID,0.105969,VALID,24.0253,VALID,356,VALID,0,
2010-04-29, 01:37:05,VALID,1010.79,VALID,0,VALID,102.338,VALID,0.105969,VALID,23.9455,VALID,356,VALID,0,
2010-04-29, 01:38:05,VALID,1010.75,VALID,0,VALID,102.376,VALID,0.105969,VALID,23.926,VALID,356,VALID,0,
2010-04-29, 01:39:05,VALID,1010.78,VALID,0,VALID,102.353,VALID,0.105969,VALID,23.9065,VALID,356,VALID,0,
2010-04-29, 01:40:05,VALID,1010.75,VALID,0,VALID,102.315,VALID,0.105969,VALID,23.9065,VALID,356,VALID,0,
2010-04-29, 01:41:05,VALID,1010.72,VALID,0,VALID,102.292,VALID,0.105969,VALID,23.9065,VALID,356,VALID,0,
2010-04-29, 01:42:05,VALID,1010.68,VALID,0,VALID,102.277,VALID,0.105969,VALID,23.9473,VALID,356,VALID,0,
2010-04-29, 01:43:05,VALID,1010.71,VALID,0,VALID,102.261,VALID,0.211938,VALID,23.9455,VALID,356,VALID,0,
2010-04-29, 01:44:05,VALID,1010.69,VALID,0,VALID,102.254,VALID,0.105969,VALID,23.9437,VALID,356,VALID,0,
2010-04-29, 01:45:05,VALID,1010.66,VALID,0,VALID,102.238,VALID,0.105969,VALID,23.9845,VALID,356,VALID,0,
2010-04-29, 01:46:05,VALID,1010.64,VALID,0,VALID,102.223,VALID,0.105969,VALID,24.004,VALID,356,VALID,0,
2010-04-29, 01:47:05,VALID,1010.63,VALID,0,VALID,102.208,VALID,0.105969,VALID,24.0235,VALID,356,VALID,0,
2010-04-29, 01:48:05,VALID,1010.64,VALID,0,VALID,102.216,VALID,0,VALID,24.0429,VALID,356,VALID,0,
2010-04-29, 01:49:05,VALID,1010.65,VALID,0,VALID,102.162,VALID,0.105969,VALID,24.0819,VALID,356,VALID,0,
2010-04-29, 01:50:05,VALID,1010.66,VALID,0,VALID,102.185,VALID,0.105969,VALID,24.1014,VALID,356,VALID,0,
2010-04-29, 01:51:05,VALID,1010.64,VALID,0,VALID,102.155,VALID,0,VALID,24.1014,VALID,356,VALID,0,
2010-04-29, 01:52:05,VALID,1010.61,VALID,0,VALID,102.17,VALID,0.105969,VALID,24.1014,VALID,356,VALID,0,
2010-04-29, 01:53:05,VALID,1010.6,VALID,0,VALID,102.17,VALID,0.105969,VALID,24.1014,VALID,356,VALID,0,
2010-04-29, 01:54:05,VALID,1010.6,VALID,0,VALID,102.216,VALID,0.105969,VALID,24.0819,VALID,356,VALID,0,
2010-04-29, 01:55:05,VALID,1010.58,VALID,0,VALID,102.2,VALID,0.105969,VALID,24.0819,VALID,356,VALID,0,
2010-04-29, 01:56:05,VALID,1010.59,VALID,0,VALID,102.223,VALID,0.105969,VALID,24.0624,VALID,356,VALID,0,
2010-04-29, 01:57:05,VALID,1010.58,VALID,0,VALID,102.261,VALID,0.105969,VALID,24.0429,VALID,356,VALID,0,
2010-04-29, 01:58:05,VALID,1010.56,VALID,0,VALID,102.292,VALID,0.105969,VALID,24.004,VALID,356,VALID,0,
2010-04-29, 01:59:05,VALID,1010.58,VALID,0,VALID,102.307,VALID,0.105969,VALID,23.965,VALID,356,VALID,0,
2010-04-29, 02:00:05,VALID,1010.54,VALID,0,VALID,102.292,VALID,0.105969,VALID,23.9455,VALID,356,VALID,0,
2010-04-29, 02:01:05,VALID,1010.56,VALID,0,VALID,102.315,VALID,0,VALID,23.9084,VALID,356,VALID,0,
2010-04-29, 02:02:05,VALID,1010.56,VALID,0,VALID,102.307,VALID,0,VALID,23.8889,VALID,356,VALID,0,
2010-04-29, 02:03:05,VALID,1010.54,VALID,0,VALID,102.315,VALID,0,VALID,23.8694,VALID,356,VALID,0,
2010-04-29, 02:04:05,VALID,1010.54,VALID,0,VALID,102.307,VALID,0,VALID,23.8499,VALID,356,VALID,0,
2010-04-29, 02:05:05,VALID,1010.56,VALID,0,VALID,102.315,VALID,0,VALID,23.8499,VALID,356,VALID,0,
2010-04-29, 02:06:05,VALID,1010.57,VALID,0,VALID,102.338,VALID,0,VALID,23.8109,VALID,356,VALID,0,
2010-04-29, 02:07:05,VALID,1010.53,VALID,0,VALID,102.299,VALID,0,VALID,23.8304,VALID,356,VALID,0,
2010-04-29, 02:08:05,VALID,1010.56,VALID,0,VALID,102.307,VALID,0,VALID,23.8304,VALID,356,VALID,0,
2010-04-29, 02:09:05,VALID,1010.57,VALID,0,VALID,102.284,VALID,0,VALID,23.8304,VALID,356,VALID,0,
2010-04-29, 02:10:05,VALID,1010.58,VALID,0,VALID,102.277,VALID,0,VALID,23.8304,VALID,356,VALID,0,
2010-04-29, 02:11:05,VALID,1010.57,VALID,0,VALID,102.269,VALID,0,VALID,23.8304,VALID,356,VALID,0,
2010-04-29, 02:12:05,VALID,1010.57,VALID,0,VALID,102.254,VALID,0,VALID,23.8304,VALID,356,VALID,0,
2010-04-29, 02:13:05,VALID,1010.56,VALID,0,VALID,102.231,VALID,0,VALID,23.8499,VALID,356,VALID,0,
2010-04-29, 02:14:05,VALID,1010.55,VALID,0,VALID,102.231,VALID,0,VALID,23.8694,VALID,356,VALID,0,
2010-04-29, 02:15:05,VALID,1010.54,VALID,0,VALID,102.238,VALID,0,VALID,23.8499,VALID,356,VALID,0,
2010-04-29, 02:16:05,VALID,1010.53,VALID,0,VALID,102.254,VALID,0,VALID,23.8481,VALID,356,VALID,0,
2010-04-29, 02:17:05,VALID,1010.55,VALID,0,VALID,102.277,VALID,0.105969,VALID,23.8481,VALID,356,VALID,0,
2010-04-29, 02:18:05,VALID,1010.54,VALID,0,VALID,102.261,VALID,0,VALID,23.8286,VALID,356,VALID,0,
2010-04-29, 02:19:05,VALID,1010.56,VALID,0,VALID,102.307,VALID,0,VALID,23.8091,VALID,356,VALID,0,
2010-04-29, 02:20:05,VALID,1010.54,VALID,0,VALID,102.315,VALID,0,VALID,23.7896,VALID,356,VALID,0,
2010-04-29, 02:21:05,VALID,1010.56,VALID,0,VALID,102.33,VALID,0,VALID,23.7507,VALID,356,VALID,0,
2010-04-29, 02:22:05,VALID,1010.52,VALID,0,VALID,102.33,VALID,0,VALID,23.7507,VALID,356,VALID,0,
2010-04-29, 02:23:05,VALID,1010.54,VALID,0,VALID,102.33,VALID,0,VALID,23.7525,VALID,356,VALID,0,
2010-04-29, 02:24:05,VALID,1010.53,VALID,0,VALID,102.315,VALID,0.105969,VALID,23.7525,VALID,356,VALID,0,
2010-04-29, 02:25:05,VALID,1010.52,VALID,0,VALID,102.269,VALID,0,VALID,23.7507,VALID,356,VALID,0,
2010-04-29, 02:26:05,VALID,1010.52,VALID,0,VALID,102.269,VALID,0,VALID,23.7507,VALID,356,VALID,0,
2010-04-29, 02:27:05,VALID,1010.53,VALID,0,VALID,102.223,VALID,0,VALID,23.8109,VALID,356,VALID,0,
2010-04-29, 02:28:05,VALID,1010.52,VALID,0,VALID,102.231,VALID,0,VALID,23.8109,VALID,356,VALID,0,
2010-04-29, 02:29:05,VALID,1010.51,VALID,0,VALID,102.238,VALID,0,VALID,23.8091,VALID,356,VALID,0,
2010-04-29, 02:30:05,VALID,1010.5,VALID,0,VALID,102.261,VALID,0.105969,VALID,23.8091,VALID,356,VALID,0,
2010-04-29, 02:31:05,VALID,1010.51,VALID,0,VALID,102.269,VALID,0.105969,VALID,23.8091,VALID,356,VALID,0,
2010-04-29, 02:32:05,VALID,1010.51,VALID,0,VALID,102.269,VALID,0,VALID,23.8091,VALID,356,VALID,0,
2010-04-29, 02:33:05,VALID,1010.51,VALID,0,VALID,102.284,VALID,0,VALID,23.8109,VALID,356,VALID,0,
2010-04-29, 02:34:05,VALID,1010.52,VALID,0,VALID,102.292,VALID,0,VALID,23.772,VALID,356,VALID,0,
2010-04-29, 02:35:05,VALID,1010.54,VALID,0,VALID,102.315,VALID,0,VALID,23.7507,VALID,356,VALID,0,
2010-04-29, 02:36:05,VALID,1010.55,VALID,0,VALID,102.307,VALID,0,VALID,23.7507,VALID,356,VALID,0,
2010-04-29, 02:37:05,VALID,1010.53,VALID,0,VALID,102.307,VALID,0,VALID,23.7525,VALID,356,VALID,0,
2010-04-29, 02:38:05,VALID,1010.52,VALID,0,VALID,102.299,VALID,0.105969,VALID,23.7507,VALID,356,VALID,0,
2010-04-29, 02:39:05,VALID,1010.54,VALID,0,VALID,102.307,VALID,0,VALID,23.7312,VALID,356,VALID,0,
2010-04-29, 02:40:05,VALID,1010.5,VALID,0,VALID,102.292,VALID,0,VALID,23.772,VALID,356,VALID,0,
2010-04-29, 02:41:05,VALID,1010.49,VALID,0,VALID,102.238,VALID,0,VALID,23.7914,VALID,356,VALID,0,
2010-04-29, 02:42:05,VALID,1010.46,VALID,0,VALID,102.254,VALID,0,VALID,23.7701,VALID,356,VALID,0,
2010-04-29, 02:43:05,VALID,1010.43,VALID,0,VALID,102.254,VALID,0,VALID,23.7701,VALID,356,VALID,0,
2010-04-29, 02:44:05,VALID,1010.43,VALID,0,VALID,102.246,VALID,0,VALID,23.772,VALID,356,VALID,0,
2010-04-29, 02:45:05,VALID,1010.43,VALID,0,VALID,102.223,VALID,0.105969,VALID,23.7701,VALID,356,VALID,0,
2010-04-29, 02:46:05,VALID,1010.43,VALID,0,VALID,102.208,VALID,0,VALID,23.8109,VALID,356,VALID,0,
2010-04-29, 02:47:05,VALID,1010.45,VALID,0,VALID,102.231,VALID,0,VALID,23.8091,VALID,356,VALID,0,
2010-04-29, 02:48:05,VALID,1010.43,VALID,0,VALID,102.231,VALID,0,VALID,23.8091,VALID,356,VALID,0,
2010-04-29, 02:49:05,VALID,1010.46,VALID,0,VALID,102.254,VALID,0,VALID,23.7896,VALID,356,VALID,0,
2010-04-29, 02:50:05,VALID,1010.43,VALID,0,VALID,102.284,VALID,0,VALID,23.7896,VALID,356,VALID,0,
2010-04-29, 02:51:05,VALID,1010.45,VALID,0,VALID,102.307,VALID,0,VALID,23.7701,VALID,356,VALID,0,
2010-04-29, 02:52:05,VALID,1010.43,VALID,0,VALID,102.284,VALID,0,VALID,23.7507,VALID,356,VALID,0,
2010-04-29, 02:53:05,VALID,1010.43,VALID,0,VALID,102.231,VALID,0,VALID,23.7914,VALID,356,VALID,0,
2010-04-29, 02:54:05,VALID,1010.43,VALID,0,VALID,102.269,VALID,0,VALID,23.7701,VALID,356,VALID,0,
2010-04-29, 02:55:05,VALID,1010.42,VALID,0,VALID,102.277,VALID,0,VALID,23.7507,VALID,356,VALID,0,
2010-04-29, 02:56:05,VALID,1010.42,VALID,0,VALID,102.307,VALID,0,VALID,23.733,VALID,356,VALID,0,
2010-04-29, 02:57:05,VALID,1010.44,VALID,0,VALID,102.292,VALID,0,VALID,23.7525,VALID,356,VALID,0,
2010-04-29, 02:58:05,VALID,1010.44,VALID,0,VALID,102.277,VALID,0,VALID,23.7312,VALID,356,VALID,0,
2010-04-29, 02:59:05,VALID,1010.46,VALID,0,VALID,102.246,VALID,0.105969,VALID,23.7507,VALID,356,VALID,0,
2010-04-29, 03:00:05,VALID,1010.47,VALID,0,VALID,102.254,VALID,0.105969,VALID,23.7525,VALID,356,VALID,0,
2010-04-29, 03:01:05,VALID,1010.49,VALID,0,VALID,102.261,VALID,0.105969,VALID,23.772,VALID,356,VALID,0,
2010-04-29, 03:02:05,VALID,1010.48,VALID,0,VALID,102.292,VALID,0,VALID,23.7135,VALID,356,VALID,0,
2010-04-29, 03:03:05,VALID,1010.47,VALID,0,VALID,102.338,VALID,0,VALID,23.6727,VALID,356,VALID,0,
2010-04-29, 03:04:05,VALID,1010.48,VALID,0,VALID,102.36,VALID,0.105969,VALID,23.6532,VALID,356,VALID,0,
2010-04-29, 03:05:05,VALID,1010.48,VALID,0,VALID,102.36,VALID,0,VALID,23.6356,VALID,356,VALID,0,
2010-04-29, 03:06:05,VALID,1010.49,VALID,0,VALID,102.353,VALID,0,VALID,23.5948,VALID,356,VALID,0,
2010-04-29, 03:07:05,VALID,1010.51,VALID,0,VALID,102.36,VALID,0,VALID,23.6161,VALID,356,VALID,0,
2010-04-29, 03:08:05,VALID,1010.5,VALID,0,VALID,102.36,VALID,0,VALID,23.5948,VALID,356,VALID,0,
2010-04-29, 03:09:05,VALID,1010.5,VALID,0,VALID,102.353,VALID,0,VALID,23.5753,VALID,356,VALID,0,
2010-04-29, 03:10:05,VALID,1010.53,VALID,0,VALID,102.36,VALID,0,VALID,23.5753,VALID,356,VALID,0,
2010-04-29, 03:11:05,VALID,1010.5,VALID,0,VALID,102.368,VALID,0,VALID,23.5771,VALID,356,VALID,0,
2010-04-29, 03:12:05,VALID,1010.53,VALID,0,VALID,102.376,VALID,0.105969,VALID,23.5771,VALID,356,VALID,0,
2010-04-29, 03:13:05,VALID,1010.52,VALID,0,VALID,102.36,VALID,0,VALID,23.5558,VALID,356,VALID,0,
2010-04-29, 03:14:05,VALID,1010.53,VALID,0,VALID,102.36,VALID,0,VALID,23.5558,VALID,356,VALID,0,
2010-04-29, 03:15:05,VALID,1010.53,VALID,0,VALID,102.345,VALID,0.105969,VALID,23.5558,VALID,356,VALID,0,
2010-04-29, 03:16:05,VALID,1010.52,VALID,0,VALID,102.368,VALID,0,VALID,23.5576,VALID,356,VALID,0,
2010-04-29, 03:17:05,VALID,1010.54,VALID,0,VALID,102.353,VALID,0,VALID,23.5576,VALID,356,VALID,0,
2010-04-29, 03:18:05,VALID,1010.51,VALID,0,VALID,102.338,VALID,0,VALID,23.5576,VALID,356,VALID,0,
2010-04-29, 03:19:05,VALID,1010.52,VALID,0,VALID,102.345,VALID,0,VALID,23.5576,VALID,356,VALID,0,
2010-04-29, 03:20:05,VALID,1010.51,VALID,0,VALID,102.345,VALID,0,VALID,23.5576,VALID,356,VALID,0,
2010-04-29, 03:21:05,VALID,1010.49,VALID,0,VALID,102.36,VALID,0,VALID,23.5381,VALID,356,VALID,0,
2010-04-29, 03:22:05,VALID,1010.49,VALID,0,VALID,102.368,VALID,0,VALID,23.5381,VALID,356,VALID,0,
2010-04-29, 03:23:05,VALID,1010.49,VALID,0,VALID,102.383,VALID,0,VALID,23.4974,VALID,356,VALID,0,
2010-04-29, 03:24:05,VALID,1010.49,VALID,0,VALID,102.383,VALID,0,VALID,23.4992,VALID,356,VALID,0,
2010-04-29, 03:25:05,VALID,1010.51,VALID,0,VALID,102.399,VALID,0,VALID,23.4797,VALID,356,VALID,0,
2010-04-29, 03:26:04,VALID,1010.5,VALID,0,VALID,102.414,VALID,0,VALID,23.4602,VALID,356,VALID,0,
2010-04-29, 03:27:04,VALID,1010.48,VALID,0,VALID,102.429,VALID,0,VALID,23.4212,VALID,356,VALID,0,
2010-04-29, 03:28:04,VALID,1010.48,VALID,0,VALID,102.414,VALID,0,VALID,23.4,VALID,356,VALID,0,
2010-04-29, 03:29:04,VALID,1010.51,VALID,0,VALID,102.406,VALID,0,VALID,23.462,VALID,356,VALID,0,
2010-04-29, 03:30:04,VALID,1010.49,VALID,0,VALID,102.36,VALID,0,VALID,23.4194,VALID,356,VALID,0,
2010-04-29, 03:31:04,VALID,1010.51,VALID,0,VALID,102.338,VALID,0,VALID,23.4602,VALID,356,VALID,0,
2010-04-29, 03:32:04,VALID,1010.46,VALID,0,VALID,102.33,VALID,0,VALID,23.4602,VALID,356,VALID,0,
2010-04-29, 03:33:04,VALID,1010.49,VALID,0,VALID,102.345,VALID,0,VALID,23.4797,VALID,356,VALID,0,
2010-04-29, 03:34:04,VALID,1010.48,VALID,0,VALID,102.36,VALID,0.105969,VALID,23.4992,VALID,356,VALID,0,
2010-04-29, 03:35:04,VALID,1010.47,VALID,0,VALID,102.345,VALID,0,VALID,23.4992,VALID,356,VALID,0,
2010-04-29, 03:36:04,VALID,1010.48,VALID,0,VALID,102.338,VALID,0,VALID,23.4797,VALID,356,VALID,0,
2010-04-29, 03:37:04,VALID,1010.45,VALID,0,VALID,102.33,VALID,0,VALID,23.4992,VALID,356,VALID,0,
2010-04-29, 03:38:04,VALID,1010.46,VALID,0,VALID,102.33,VALID,0,VALID,23.4992,VALID,356,VALID,0,
2010-04-29, 03:39:04,VALID,1010.46,VALID,0,VALID,102.315,VALID,0,VALID,23.4992,VALID,356,VALID,0,
2010-04-29, 03:40:04,VALID,1010.47,VALID,0,VALID,102.322,VALID,0,VALID,23.4797,VALID,356,VALID,0,
2010-04-29, 03:41:04,VALID,1010.49,VALID,0,VALID,102.299,VALID,0,VALID,23.5186,VALID,356,VALID,0,
2010-04-29, 03:42:04,VALID,1010.52,VALID,0,VALID,102.261,VALID,0,VALID,23.5381,VALID,356,VALID,0,
2010-04-29, 03:43:04,VALID,1010.51,VALID,0,VALID,102.261,VALID,0,VALID,23.5576,VALID,356,VALID,0,
2010-04-29, 03:44:04,VALID,1010.52,VALID,0,VALID,102.246,VALID,0,VALID,23.5771,VALID,356,VALID,0,
2010-04-29, 03:45:04,VALID,1010.5,VALID,0,VALID,102.231,VALID,0,VALID,23.5966,VALID,356,VALID,0,
2010-04-29, 03:46:04,VALID,1010.53,VALID,0,VALID,102.254,VALID,0,VALID,23.5771,VALID,356,VALID,0,
2010-04-29, 03:47:04,VALID,1010.52,VALID,0,VALID,102.299,VALID,0,VALID,23.5771,VALID,356,VALID,0,
2010-04-29, 03:48:04,VALID,1010.54,VALID,0,VALID,102.277,VALID,0,VALID,23.5771,VALID,356,VALID,0,
2010-04-29, 03:49:04,VALID,1010.54,VALID,0,VALID,102.307,VALID,0,VALID,23.5789,VALID,356,VALID,0,
2010-04-29, 03:50:04,VALID,1010.56,VALID,0,VALID,102.322,VALID,0,VALID,23.5381,VALID,356,VALID,0,
2010-04-29, 03:51:04,VALID,1010.54,VALID,0,VALID,102.307,VALID,0,VALID,23.5186,VALID,356,VALID,0,
2010-04-29, 03:52:04,VALID,1010.52,VALID,0,VALID,102.338,VALID,0,VALID,23.5186,VALID,356,VALID,0,
2010-04-29, 03:53:04,VALID,1010.51,VALID,0,VALID,102.322,VALID,0,VALID,23.5186,VALID,356,VALID,0,
2010-04-29, 03:54:04,VALID,1010.51,VALID,0,VALID,102.353,VALID,0,VALID,23.4797,VALID,356,VALID,0,
2010-04-29, 03:55:04,VALID,1010.49,VALID,0,VALID,102.345,VALID,0,VALID,23.4407,VALID,356,VALID,0,